Location: Br�ttisellen
(47.4227°N, 8.6287°E)
Time: 10:35:54
(UTC+00:00)

Cosmos 1461 - Pass Details

Date: 09 April 2020
Orbit: 507 x 659 km, 65.0° (Epoch: 25 May)

Event Time Altitude Azimuth Distance (km) Brightness Sun altitude
Rises 18:56:25 0° 322° (NW) 2,884 7.7 -8.8°
Reaches altitude 10° 18:58:39 10° 322° (NW) 1,998 6.7 -9.2°
Maximum altitude 19:03:12 85° 237° (WSW) 647 3.2 -9.9°
Drops below altitude 10° 19:07:53 10° 146° (SSE) 2,052 5.2 -10.6°
Enters shadow 19:07:57 10° 146° (SSE) 2,077 5.2 -10.6°
